Flag Weather past 2 weeks in Cupertino, California, U.S.A.

Now
58 °F

Mostly cloudy.


Feels Like: 57 °F
Forecast: 50 / 63 °F
Wind: 6 mph from Southeast

Location: Moffett Field

Current Time: Nov 22, 2014 at 2:40:42 AM

Latest Report: Nov 22, 2014 at 1:56 AM


Visibility: 10 mi

Pressure: 30.14 "Hg

Humidity: 81%

Dew point: 52 °F

Location of CupertinoLocation

Historic Weather in Cupertino — Graph

°F

Cupertino temperature yesterday

Maximum temperature yesterday: 64 °F (at 1:56 PM)
Minimum temperature yesterday: 49 °F (at 3:56 AM)
Average temperature yesterday: 57 °F

Past Weeks' High & Low Weather Summary

 TemperatureHumidityPressure
High74 °F (Nov 8, 3:56 PM)100% (Nov 7, 4:56 AM)30.27 "Hg (Nov 7, 4:56 AM)
Low46 °F (Nov 17, 5:56 AM)15% (Nov 16, 10:56 AM)29.80 "Hg (Nov 10, 1:56 PM)
Average58 °F75%30.07 "Hg
* Reported Nov 7 12:56 AM — Nov 22 12:56 AM, Cupertino, Weather by CustomWeather, © 2014

Note: Actual official high and low records may vary slightly from our data, if they occured in-between our weather recording intervals... More about our weather records

Advertising

Cupertino weather history for previous 24 hours

 ConditionsComfort  
Time TempWeatherWind HumidityBarometerVisibility
12:56 AM
Nov 22
58 °FOvercast.5 mph84%30.14 "Hg10 mi
11:56 PM
Nov 21
58 °FMostly cloudy.No wind84%30.14 "Hg10 mi
10:56 PM58 °FClear.3 mph84%30.14 "Hg10 mi
9:56 PM59 °FOvercast.3 mph84%30.14 "Hg10 mi
8:56 PM59 °FPassing clouds.No wind84%30.14 "Hg10 mi
7:56 PM60 °FOvercast.No wind80%30.14 "Hg10 mi
6:56 PM59 °FPassing clouds.No wind84%30.13 "Hg10 mi
5:56 PM60 °FOvercast.3 mph80%30.13 "Hg10 mi
4:56 PM60 °FOvercast.3 mph72%30.11 "Hg10 mi
3:56 PM61 °FPartly sunny.3 mph60%30.10 "Hg10 mi
2:56 PM62 °FOvercast.6 mph60%30.10 "Hg10 mi
1:56 PM64 °FScattered clouds.3 mph52%30.08 "Hg10 mi
12:56 PM63 °FSunny.7 mph60%30.10 "Hg10 mi
11:56 AM61 °FSunny.3 mph65%30.11 "Hg10 mi
10:56 AM59 °FScattered clouds.No wind72%30.12 "Hg10 mi
9:56 AM57 °FSunny.No wind90%30.13 "Hg10 mi
8:56 AM56 °FScattered clouds.No wind93%30.13 "Hg9 mi
7:56 AM54 °FPartly sunny.No wind97%30.11 "Hg10 mi
6:56 AM52 °FOvercast.No wind100%30.09 "Hg10 mi
5:56 AM51 °FOvercast.No wind100%30.08 "Hg10 mi
4:56 AM50 °FOvercast.No wind100%30.07 "Hg10 mi
3:56 AM49 °FFog.No wind97%30.06 "Hg4 mi
2:56 AM50 °FClear.No wind100%30.06 "Hg10 mi
Weather by CustomWeather, © 2014

See weather overviewHow to use our weather pages